Flag for United Kingdom Weather past 2 weeks in Edinburgh, Scotland, United Kingdom

Now
50 °F

Sunny.


Feels Like: 45 °F
Forecast: 38 / 51 °F
Wind: 14 mph from Southwest

Location: Edinburgh Airport


UV Index: 0 (Low)

Visibility: 10 mi


Pressure: 30.04 "Hg

Humidity: 76%

Dew point: 43 °F

Location of EdinburghLocation

Historic Weather in Edinburgh

°F

Edinburgh temperature yesterday

Maximum temperature yesterday: 61 °F (at 2:50 PM)
Minimum temperature yesterday: 30 °F (at 4:50 AM)
Average temperature yesterday: 49 °F

Past Weeks' High & Low Weather Summary

 TemperatureHumidityPressure
High61 °F (Apr 6, 11:50 AM)100% (Apr 1, 8:20 PM)30.39 "Hg (Apr 1, 8:20 PM)
Low30 °F (Apr 15, 4:50 AM)39% (Apr 14, 3:50 PM)29.47 "Hg (Apr 6, 10:50 AM)
Average48 °F80%29.90 "Hg
* Reported Apr 1 8:20 PM — Apr 16 8:20 PM, Edinburgh, Weather by CustomWeather, © 2014

Note: Actual official high and low records may vary slightly from our data, if they occured in-between our weather recording intervals... More about our weather records

Advertising

Historic Weather Conditions — Data for Previous 24 hours

 ConditionsComfort  
Time TempWeatherWind HumidityBarometerVisibility
8:20 PM
Apr 16
50 °FSunny.16 mph71%30.07 "Hg10 mi
7:50 PM52 °FSunny.15 mph67%30.07 "Hg10 mi
7:20 PM52 °FSunny.13 mph67%30.07 "Hg10 mi
6:50 PM54 °FSunny.17 mph63%30.07 "Hg10 mi
6:20 PM54 °FSunny.20 mph63%30.07 "Hg10 mi
5:50 PM55 °FSunny.21 mph59%30.09 "Hg10 mi
5:20 PM55 °FPassing clouds.21 mph59%30.09 "HgN/A
4:50 PM55 °FPassing clouds.20 mph59%30.09 "HgN/A
4:20 PM54 °FSunny.20 mph58%30.12 "Hg10 mi
3:50 PM55 °FSunny.18 mph55%30.12 "Hg10 mi
3:20 PM55 °FPassing clouds.20 mph55%30.15 "HgN/A
2:50 PM55 °FPassing clouds.22 mph55%30.15 "HgN/A
2:20 PM57 °FPassing clouds.21 mph55%30.15 "HgN/A
1:50 PM55 °FPassing clouds.24 mph59%30.18 "HgN/A
1:20 PM55 °FPassing clouds.20 mph59%30.18 "HgN/A
12:50 PM55 °FPassing clouds.18 mph51%30.18 "HgN/A
12:20 PM54 °FPassing clouds.17 mph63%30.18 "HgN/A
11:50 AM54 °FPassing clouds.17 mph67%30.18 "HgN/A
11:20 AM55 °FSunny.14 mph63%30.21 "Hg10 mi
10:50 AM52 °FSunny.14 mph67%30.21 "Hg10 mi
10:20 AM52 °FSunny.13 mph67%30.21 "Hg10 mi
9:50 AM52 °FSunny.14 mph67%30.21 "Hg10 mi
9:20 AM50 °FSunny.13 mph71%30.21 "Hg10 mi
8:50 AM50 °FSunny.10 mph71%30.21 "Hg10 mi
8:20 AM50 °FSunny.9 mph71%30.24 "Hg10 mi
7:50 AM48 °FSunny.9 mph71%30.24 "Hg10 mi
7:20 AM45 °FSunny.8 mph81%30.24 "Hg10 mi
6:50 AM43 °FPassing clouds.5 mph76%30.24 "HgN/A
6:20 AM43 °FQuite cool.2 mph76%30.24 "HgN/A
5:50 AM43 °FClear.6 mph76%30.24 "Hg10 mi
5:20 AM43 °FClear.3 mph76%30.24 "Hg10 mi
4:50 AM43 °FPassing clouds.5 mph76%30.24 "HgN/A
4:20 AM45 °FClear.7 mph71%30.24 "Hg10 mi
3:50 AM45 °FPassing clouds.7 mph71%30.24 "HgN/A
3:20 AM45 °FPassing clouds.6 mph71%30.24 "HgN/A
2:50 AM45 °FClear.10 mph71%30.27 "Hg10 mi
2:20 AM46 °FClear.6 mph66%30.27 "Hg10 mi
1:50 AM45 °FClear.6 mph71%30.27 "Hg10 mi
11:50 PM
Apr 15
48 °FClear.13 mph66%30.27 "Hg10 mi
11:20 PM48 °FClear.12 mph71%30.27 "Hg10 mi
10:50 PM48 °FPassing clouds.7 mph66%30.30 "HgN/A
10:20 PM48 °FPassing clouds.7 mph66%30.30 "HgN/A
9:50 PM50 °FClear.10 mph67%30.30 "Hg10 mi
9:20 PM50 °FClear.8 mph67%30.30 "Hg10 mi
Weather by CustomWeather, © 2014

See weather overview